MST,Max TemperatureF,Mean TemperatureF,Min TemperatureF,Max Dew PointF,MeanDew PointF,Min DewpointF,Max Humidity, Mean Humidity, Min Humidity, Max Sea Level PressureIn, Mean Sea Level PressureIn, Min Sea Level PressureIn, Max VisibilityMiles, Mean VisibilityMiles, Min VisibilityMiles, Max Wind SpeedMPH, Mean Wind SpeedMPH, Max Gust SpeedMPH,PrecipitationIn, CloudCover, Events, WindDirDegrees
2011-12-1,25,14,2,23,12,-1,88,75,62,30.67,30.50,30.31,10,9,1,14,6,,0.02,5,Snow,314
2011-12-2,26,12,-2,22,13,-3,96,76,55,30.32,30.09,29.91,10,5,0,10,4,,0.16,5,Fog-Snow,323
2011-12-3,21,15,8,19,11,1,92,77,61,30.31,30.19,30.08,10,7,1,7,3,,0.05,4,Snow,281
2011-12-4,21,13,4,18,9,-3,96,78,59,30.59,30.27,30.08,10,6,0,9,4,26,0.05,6,Fog-Snow,41
2011-12-5,10,3,-5,-2,-6,-9,86,72,58,30.60,30.52,30.41,10,10,10,7,2,,0.00,1,,237
2011-12-6,14,3,-9,4,-2,-12,92,78,64,30.48,30.39,30.32,10,10,7,10,4,,0.00,0,,274
2011-12-7,21,10,-1,10,5,-1,86,74,62,30.43,30.34,30.26,10,10,6,8,2,,0.00,1,,222
2011-12-8,26,17,7,14,9,5,88,75,62,30.34,30.27,30.19,10,10,8,7,2,13,0.00,1,,122
2011-12-9,24,15,6,13,8,3,88,74,60,30.51,30.41,30.28,10,10,8,6,2,8,0.00,0,,332
2011-12-10,22,14,5,13,9,3,91,79,67,30.52,30.39,30.23,10,9,7,8,2,12,0.00,0,,269
2011-12-11,23,13,3,14,9,3,92,80,68,30.18,30.11,30.04,10,9,7,8,1,10,0.00,0,,233
2011-12-12,26,17,7,15,11,7,92,77,62,30.21,30.14,30.09,10,10,8,5,1,8,0.00,1,,272
2011-12-13,25,15,4,15,10,5,92,80,68,30.14,30.06,29.98,10,10,8,7,2,12,0.00,1,,217
2011-12-14,32,21,10,19,13,8,84,72,60,30.25,30.08,29.92,10,10,7,8,2,,0.00,2,,264
2011-12-15,23,17,10,14,10,5,83,73,62,30.38,30.28,30.22,10,10,8,6,1,,0.00,1,,319
2011-12-16,28,18,7,14,9,4,92,74,55,30.55,30.45,30.38,10,10,8,10,3,15,0.00,0,,272
2011-12-17,27,16,5,15,10,2,88,73,57,30.59,30.50,30.37,10,10,8,7,3,9,0.00,0,,281
2011-12-18,45,25,5,17,12,7,92,65,37,30.35,30.15,30.01,10,9,5,7,2,13,0.00,0,,236
2011-12-19,29,23,17,24,20,13,100,71,41,30.29,30.19,30.06,10,7,2,9,4,14,0.01,7,Snow,283
2011-12-20,20,15,9,16,12,7,92,86,80,30.24,29.98,29.81,10,4,0,9,3,13,0.00,3,Fog,244
2011-12-21,27,19,10,23,17,7,96,86,75,30.33,30.01,29.72,10,4,0,13,7,22,0.68,7,Fog-Snow,322
2011-12-22,21,10,-1,16,7,-3,92,80,67,30.54,30.46,30.27,10,10,8,7,2,,T,2,,246
2011-12-23,10,3,-4,3,-1,-6,91,82,73,30.67,30.47,30.27,10,6,0,6,1,,0.00,1,Fog,80
2011-12-24,14,4,-7,6,2,-4,95,81,67,30.78,30.69,30.61,10,9,7,7,3,,0.00,0,,290
2011-12-25,20,12,3,9,5,1,91,77,62,30.70,30.51,30.21,10,10,8,6,2,,0.00,0,,307
2011-12-26,40,24,7,18,11,4,83,62,40,30.33,30.20,29.95,10,10,10,16,5,,0.00,0,,253
2011-12-27,37,24,11,18,13,9,80,61,41,30.20,30.15,30.09,10,10,10,9,4,,0.00,0,,208
2011-12-28,43,33,22,25,20,15,75,63,51,30.11,30.04,29.93,10,10,10,10,4,,0.00,0,,175
2011-12-29,51,39,26,30,22,13,75,54,33,29.98,29.80,29.69,10,10,10,30,12,46,T,1,,286
2011-12-30,53,37,21,24,18,11,62,47,31,29.94,29.76,29.56,10,10,10,38,10,56,0.00,0,,262
2011-12-31,44,30,16,23,11,3,63,46,28,30.43,30.03,29.48,10,10,10,23,10,44,0.00,1,,289